This demonstration page uses our WeatherBlox Daily Observations layout. Learn more.

Left ArrowRight Arrow

Hourly Observations for July 21, 2018

Temp ( °F °C ) Dew Point ( °F °C ) Humidity (%) Winds ( mph kmh ) Pressure ( in mb ) Visibility ( mi km ) Precip ( " mm )
12:59 am 00:59 Mostly Cloudy 78 25.6 63 17.2 60 60 SE 12 19 29.99 1016 10 16 0.00 0.00
1:59 am 01:59 Mostly Cloudy 78 25.6 64 17.8 62 62 ESE 8 13 29.98 1015 10 16 0.00 0.00
2:59 am 02:59 Cloudy 76 24.4 64 17.8 67 67 SE 10 17 29.96 1015 10 16 0.00 0.00
3:56 am 03:56 Cloudy 73 23 68 20 83 83 E 6 9 29.94 1014 10 16 0.00 0.03
3:59 am 03:59 Cloudy 73 22.8 68 20 84 84 E 6 9 29.94 1014 10 16 0.00 0.03
4:18 am 04:18 Cloudy 73 22.8 67 19.4 81 81 E 8 13 29.94 1014 10 16 0.00 0.00
4:59 am 04:59 Mostly Cloudy 74 23.3 68 20 82 82 E 13 20 29.92 1013 10 16 0.01 0.25
5:11 am 05:11 Cloudy 74 23.3 68 20 82 82 E 15 24 29.91 1013 10 16 0.00 0.00
5:48 am 05:48 Cloudy with Light Rain 73 22.8 70 21.1 90 90 E 12 19 29.91 1013 3 5 0.00 0.03
5:59 am 05:59 Cloudy with Light Rain 73 22.8 70 21.1 90 90 E 12 19 29.91 1013 3 5 0.02 0.51
6:59 am 06:59 Cloudy with Rain 73 22.8 71 21.7 94 94 ENE 10 17 29.90 1013 3 4 0.04 1.02
7:05 am 07:05 Cloudy with Rain 73 22.8 71 21.7 94 94 ENE 12 19 29.91 1013 2 2 0.05 1.27
7:23 am 07:23 Cloudy with Light Rain 74 23.3 71 21.7 91 91 ENE 13 20 29.88 1012 2 3 0.15 3.81
7:59 am 07:59 Cloudy with Light Rain 74 23.3 72 22.2 94 94 ENE 8 13 29.88 1012 2 3 0.22 5.59
8:11 am 08:11 Cloudy with Light Rain 74 23.3 72 22.2 94 94 ENE 8 13 29.88 1012 4 6 0.01 0.25
8:22 am 08:22 Cloudy with Light Rain 74 23.3 72 22.2 94 94 ENE 6 9 29.88 1012 4 6 0.02 0.51
8:30 am 08:30 Cloudy with Light Rain 74 23.3 72 22.2 94 94 ENE 5 7 29.88 1012 4 6 0.03 0.76
8:36 am 08:36 Cloudy with Rain 74 23.3 72 22.2 94 94 ENE 5 7 29.88 1012 2 3 0.06 1.52
8:41 am 08:41 Cloudy with Rain 74 23.3 72 22.2 94 94 NE 6 9 29.88 1012 2 2 0.09 2.29
8:43 am 08:43 Cloudy with Rain 74 23.3 72 22.2 94 94 NE 6 9 29.88 1012 2 2 0.10 2.54
8:55 am 08:55 Cloudy with Heavy Rain 75 24 72 22 89 89 NE 9 15 29.85 1011 1 2 0.25 6.35
8:59 am 08:59 Cloudy with Heavy Rain 75 23.9 73 22.8 94 94 ENE 13 20 29.84 1011 1 2 0.28 7.11
9:20 am 09:20 Cloudy with Heavy Rain 74 23.3 72 22.2 94 94 SE 14 22 29.85 1011 1 1 0.22 5.59
9:24 am 09:24 Cloudy with Light Rain 75 23.9 73 22.8 94 94 SE 8 13 29.85 1011 1 2 0.23 5.84
9:27 am 09:27 Cloudy with Light Rain 75 23.9 73 22.8 94 94 SE 9 15 29.85 1011 2 3 0.24 6.10
9:29 am 09:29 Cloudy with Light Rain 75 23.9 73 22.8 94 94 SE 13 20 29.85 1011 3 4 0.24 6.10
9:34 am 09:34 Cloudy with Light Rain 75 23.9 72 22.2 90 90 SE 9 15 29.83 1010 3 5 0.25 6.35
9:59 am 09:59 Cloudy with Light Rain 75 23.9 72 22.2 90 90 ESE 8 13 29.84 1010 6 10 0.30 7.62
10:11 am 10:11 Cloudy 75 23.9 72 22.2 90 90 ESE 8 13 29.83 1010 7 11 0.00 0.03
10:32 am 10:32 Cloudy with Light Rain 75 23.9 72 22.2 90 90 ESE 12 19 29.83 1010 2 3 0.04 1.02
10:34 am 10:34 Cloudy with Heavy Rain 75 23.9 72 22.2 90 90 ESE 13 20 29.83 1010 2 2 0.05 1.27
10:42 am 10:42 Cloudy with Light Rain 75 23.9 73 22.8 94 94 ESE 10 17 29.83 1010 2 3 0.07 1.78
10:44 am 10:44 Cloudy with Light Rain 75 23.9 73 22.8 94 94 ESE 10 17 29.83 1010 3 4 0.07 1.78
10:46 am 10:46 Cloudy with Light Rain 75 23.9 73 22.8 94 94 ESE 10 17 29.83 1010 3 5 0.07 1.78
10:59 am 10:59 Cloudy 76 24.4 74 23.3 94 94 ESE 13 20 29.82 1010 7 11 0.07 1.78
11:59 am 11:59 Cloudy with Mist and Fog 77 25 74 23.3 90 90 SE 12 19 29.79 1009 6 10 0.01 0.25
12:06 pm 12:06 Cloudy 77 25 73 22.8 88 88 SE 12 19 29.80 1009 7 11 0.00 0.00
12:40 pm 12:40 Cloudy with Mist and Fog 77 25 73 22.8 88 88 ESE 9 15 29.77 1008 4 6 0.00 0.00
12:59 pm 12:59 Cloudy with Light Rain 78 25.6 74 23.3 87 87 ESE 14 22 29.75 1008 5 8 0.01 0.25
1:59 pm 13:59 Cloudy with Rain 76 24.4 73 22.8 91 91 ESE 10 17 29.72 1006 3 5 0.05 1.27
2:05 pm 14:05 Cloudy with Light Rain 77 25 74 23.3 90 90 ESE 10 17 29.71 1006 2 3 0.02 0.51
2:15 pm 14:15 Cloudy with Light Rain 77 25 74 23.3 90 90 ESE 13 20 29.71 1006 5 8 0.03 0.76
2:29 pm 14:29 Cloudy with Light Rain 77 25 74 23.3 90 90 ESE 9 15 29.71 1006 3 4 0.04 1.02
2:33 pm 14:33 Mostly Cloudy with Light Rain 77 25 74 23.3 90 90 ESE 13 20 29.68 1005 4 6 0.04 1.02
2:59 pm 14:59 Cloudy with Light Rain 77 25 74 23.3 90 90 ESE 15 24 29.68 1005 7 11 0.05 1.27
3:55 pm 15:55 Cloudy with Light Rain 75 24 72 22 89 89 E 7 11 29.65 1004 9 14 0.00 0.03
3:59 pm 15:59 Cloudy with Light Rain 76 24.4 72 22.2 88 88 E 10 17 29.64 1004 9 14 0.00 0.03
4:31 pm 16:31 Mostly Cloudy with Light Rain 77 25 74 23.3 90 90 N 6 9 29.62 1003 3 5 0.01 0.25
4:35 pm 16:35 Cloudy with Light Rain 77 25 73 22.8 88 88 N 8 13 29.62 1003 3 4 0.01 0.25
4:59 pm 16:59 Cloudy with Light Rain 77 25 74 23.3 90 90 NNE 8 13 29.62 1003 3 4 0.03 0.76
5:06 pm 17:06 Cloudy with Light Rain 76 24.4 74 23.3 94 94 NNW 9 15 29.62 1003 1 2 0.01 0.25
5:18 pm 17:18 Cloudy with Light Rain 77 25 74 23.3 90 90 NNW 10 17 29.62 1003 2 3 0.01 0.25
5:59 pm 17:59 Cloudy with Mist and Fog 76 24.4 73 22.8 91 91 WNW 16 26 29.62 1003 6 10 0.02 0.51
6:38 pm 18:38 Mostly Cloudy 76 24.4 73 22.8 91 91 WNW 15 24 29.62 1003 10 16 0.00 0.00
6:59 pm 18:59 Cloudy with Light Rain 75 23.9 71 21.7 88 88 W 18 30 29.64 1004 7 11 0.00 0.03
7:35 pm 19:35 Cloudy 72 22.2 69 20.6 91 91 W 14 22 29.65 1004 7 11 0.00 0.03
7:59 pm 19:59 Cloudy 71 21.7 68 20 90 90 W 13 20 29.67 1005 10 16 0.00 0.03
8:59 pm 20:59 Cloudy 71 21.7 67 19.4 87 87 WSW 15 24 29.70 1006 10 16 0.00 0.00
9:06 pm 21:06 Cloudy 71 21.7 67 19.4 87 87 WSW 12 19 29.71 1006 10 16 0.00 0.00
9:59 pm 21:59 Cloudy 72 22.2 65 18.3 79 79 WSW 23 37 29.73 1007 10 16 0.00 0.00
10:59 pm 22:59 Cloudy 71 21.7 65 18.3 81 81 WSW 15 24 29.75 1007 10 16 0.00 0.00
11:29 pm 23:29 Partly Cloudy 71 21.7 65 18.3 81 81 WSW 15 24 29.74 1007 10 16 0.00 0.00
11:59 pm 23:59 Partly Cloudy 71 21.7 65 18.3 81 81 SW 12 19 29.75 1008 10 16 0.00 0.00

Powered by AerisWeather